Showing default

SJ-5, 25731

Orbit data source: Space-Track

SJ-5, 25731 is a payload satellite owned by CASC (CN) in SSO that was launched on Mon, 10 May 1999 UTC via a CHANG ZHENG 4B launch vehicle from the Taiyaun Space Center, China (TSC). Payload-class satellites include a variety of spacecraft equipped with specific instruments for various scientific and technological missions. These include communications satellites like Starlink; space stations such as the ISS; scientific satellites like the Hubble; Earth observation satellites from companies like Planet Labs, Umbra, and HawkEye 360; GPS; miniature CubeSats for education and research; and military/defense satellites.

Loading next visibility...
Identifier
25731, 1999-025B
Orbit
SSO
Country
Flag of CNCN / PRC
Related business
Manufacturer
DFH
Mission
Civil Science
Bus & Motor
CAST-968, Unknown motor
Mass
258 kg wet, 258 kg dry
Launch date (UTC)
1999-05-10 (27 years ago)
Launch vehicle
CHANG ZHENG 4B
Launch site
Taiyaun Space Center, China (TSC)
Object type
Payload
Rocket body
Debris
Shape & HBR
Box + 1 Pan, 2.0 m
Radar Cross Section
2.313 m², Large (>1 m²)

Expand to show TLE details & history
Last TLE update: 15 hours ago

TLE from 15 hours ago
0 SJ-5
1 25731U 99025B   26255.07363381  .00000005  00000-0  25590-4 0  9994
2 25731  98.7191 295.2701 0018021 107.3203 252.9942 14.12942098407597
Epoch: 2026-09-12T01:46Z
TLE epoch observation values (Epoch: 2026-09-12T01:46:01.961Z)
Latitude
-0.00007°
Longitude
-82.32593°
Altitude
856.057 km
Speed
7.423 km/s
True Right ascension
19h 41m 04s
True Declination
0° 00' 00"
Sunlit
Object was in full shadow at epoch
Visualization orbit readout
Latitude
Unknown
Longitude
Unknown
Altitude
Unknown
Speed
Unknown
Apparent Right ascension
Unknown
Apparent Declination
Unknown
Sunlit
N/A
Visualization observer readout
Local Sidereal Time
08:48:55
Azimuth
Unknown
Elevation
Unknown
Doppler factor
Unknown
Orbital elements
Apogee altitude
859.509 km
Perigee altitude
833.47 km
Semi-major axis
7,224.627 km
Eccentricity
0.0018
Inclination
98.7191°
RAAN
295.2701°
Arg. of periapsis
107.3203°
True anomaly
252.79685°
Mean anomaly
252.9942°
Eccentric anomaly
252.89551°
Mean motion
3.53444 °/min
Orbital period
101.86 mins
BSTAR
0.00002559
Loading maneuver chart data...
Computing Atmospheric mass density...

Documentation

Showing up to 5 results
|